Greenwood Springs, Mississippi
Current Conditions -  °F | °C
As of 1:55 AM on Thursday 23 Oct 2014 (Local Time) from KM40 Reporting Station
Haze Haze  
Wind Chill: 41°   Ceiling: Unl
Heat Index: 41°   Visibility: 5mi
Dew Point: 30°   Wind: 0mph
Humidity: 65%   Direction: NA
Pressure: 30.16"   Gusts: NA
Location:  33.89°N, 88.31°W
Report Text: KM40 230655Z AUTO 00000KT 5SM HZ CLR 05/M01 A3016 RMK AO2
Loading
Personal Weather Stations






























Interactive Weather Map
Tropical Storm Tracking
New forecast layout! Learn more

10-Day Weather Forecast

Advertisements
Track Severe Weather on mobile